Ланчхути

Грузия     42°05′17″N   42°02′17″E
темп.,
°C
ветер,
м/с
пор.,
м/с
влажн.,
%
обл.,
%
осадки,
мм/ч
давл.,
гПа
погр.,
м
18 апреля, вс
вс1801:00+13св238870 0.0 101872
04:00+12в3692100 0.1 1018179
07:00+13всв2984100 0.0 1015162
10:00+19св476675 0.2 1014270
13:00+25св3347100 0.0 1014387
16:00+23ююз2755100 0.0 1016333
19:00+18ююз2270100 0.2 101743
22:00+14св2385100 0.5 101855
19 апреля, пн
пн1901:00+15в228398 0.0 101926
04:00+16всв117699 0.1 101818
07:00+15всв2682100 0.3 1017120
10:00+21св366377 0.3 1015310
13:00+26св2244100 0.0 1015490
16:00+26св3445100 0.0 1013423
19:00+22всв2270100 0.0 101219
22:00+19в3667100 0.1 1014107
20 апреля, вт
вт2001:00+20в3861100 0.0 1011159
04:00+19всв51458100 0.0 1007322
07:00+19всв41057100 0.0 1005218
10:00+20всв51162100 0.0 1005222
13:00+18зюз4966100 0.0 1008415
16:00+14зюз588998 0.9 1012519
19:00+14св3795100 2.5 1011222
22:00+12юз2598100 3.1 1017330
21 апреля, ср
ср2101:00+11юз3698100 1.9 1018348
04:00+11юз3794100 2.1 1019431
07:00+11ю128776 0.0 102059
10:00+14зсз227370 0.1 1020694
13:00+16ссз2161100 0.0 10191231
16:00+14з3369100 0.1 1019822
19:00+13зюз347672 0.0 1020597
22:00+11ю128989 0.1 1022114
22 апреля, чт
чт2201:00+11ююв1185100 0.0 102258
04:00+11ююв008393 0.0 102224
07:00+10вюв1285100 0.0 102180
10:00+15сз1166100 0.0 1022755
13:00+18зсз2253100 0.0 10211341
16:00+17з435350 0.0 10221026
19:00+13зюз357074 0.0 1023515
22:00+10юз1385100 0.0 102474